Flag for Bosnia-Herzegovina Weather past 2 weeks in Tuzla, Bosnia-Herzegovina

Now
70 °F

Sunny.


Feels Like: 70 °F
Forecast: 65 / 100 °F
Wind: 1 mph from North

Location: Tuzla

Current Time: Jul 7, 2015 at 9:54:45 PM

Latest Report: Jul 7, 2015 at 9:30 PM


Visibility: 10 mi

Pressure: 29.98 "Hg

Humidity: 73%

Dew point: 61 °F

Location of TuzlaLocation

Historic Weather in Tuzla — Graph

°F

Tuzla temperature yesterday

Maximum temperature yesterday: 93 °F (at 3:00 PM)
Minimum temperature yesterday: 55 °F (at 5:30 AM)
Average temperature yesterday: 80 °F

Past Weeks' High & Low Weather Summary

 TemperatureHumidityPressure
High93 °F (Jul 6, 3:00 PM)100% (Jun 23, 6:00 AM)30.30 "Hg (Jun 23, 6:00 AM)
Low43 °F (Jun 25, 5:00 AM)28% (Jul 6, 4:00 PM)29.83 "Hg (Jun 23, 2:00 PM)
Average71 °F69%30.13 "Hg
* Reported Jun 23 6:00 AM — Jul 7 9:00 PM, Tuzla, Weather by CustomWeather, © 2015

Note: Actual official high and low records may vary slightly from our data, if they occured in-between our weather recording intervals... More about our weather records

Advertising

Tuzla weather history for previous 24 hours

 ConditionsComfort  
Time TempWeatherWind HumidityBarometerVisibility
9:00 PM
Tue, Jul 7
73 °FSunny.1 mph65%29.95 "Hg10 mi
8:00 PM82 °FSunny.2 mph58%29.95 "Hg10 mi
7:00 PM88 °FSunny.2 mph38%29.98 "Hg10 mi
6:00 PM91 °FPassing clouds.2 mph36%29.98 "HgN/A
5:00 PM93 °FPassing clouds.3 mph34%29.98 "HgN/A
4:30 PM93 °FPassing clouds.2 mph34%30.01 "HgN/A
4:00 PM93 °FSunny.2 mph34%30.01 "Hg10 mi
3:30 PM93 °FPassing clouds.3 mph34%30.01 "HgN/A
3:00 PM93 °FSunny.2 mph34%30.01 "Hg10 mi
2:30 PM93 °FPassing clouds.3 mph34%30.01 "HgN/A
2:00 PM93 °FSunny.2 mph34%30.04 "Hg10 mi
1:30 PM91 °FPassing clouds.3 mph36%30.04 "HgN/A
1:00 PM91 °FSunny.2 mph36%30.04 "Hg10 mi
12:30 PM90 °FPassing clouds.6 mph43%30.07 "HgN/A
12:00 PM90 °FPassing clouds.6 mph43%30.07 "HgN/A
11:30 AM86 °FPassing clouds.5 mph46%30.07 "HgN/A
11:00 AM84 °FPassing clouds.5 mph48%30.07 "HgN/A
10:30 AM82 °FSunny.3 mph62%30.07 "Hg10 mi
10:00 AM81 °FSunny.2 mph66%30.07 "Hg10 mi
9:30 AM79 °FPassing clouds.3 mph58%30.09 "HgN/A
9:00 AM75 °FPassing clouds.3 mph65%30.09 "HgN/A
8:00 AM72 °FSunny.1 mph83%30.09 "Hg10 mi
7:00 AM64 °FSunny.1 mph100%30.09 "Hg10 mi
6:00 AM59 °FClear.1 mph94%30.09 "Hg10 mi
5:30 AM59 °FClear.1 mph100%30.09 "Hg4 mi
10:30 PM
Mon, Jul 6
68 °FClear.2 mph83%30.09 "Hg10 mi
10:00 PM70 °FClear.1 mph83%30.07 "Hg10 mi
9:30 PM72 °FSunny.1 mph73%30.07 "Hg10 mi
9:00 PM73 °FSunny.1 mph69%30.07 "Hg10 mi
Weather by CustomWeather, © 2015

See weather overviewHow to use our weather pages